Вернуться в каталог

STARLINK-6075

АктивенСвязьVLEO
NORAD 56102·PAYLOAD·🇺🇸 United States

Запущен Mar 29, 2023 с Cape Canaveral Space Force Station

Loading…

Ближайшие Пролёты (ближайшие 24 часа)

TLE

СвежийSource: CelesTrak SupGP

Эпоха: Sep 14, 2026, 22:20 UTC

1 56102C 23046K   26257.93104167 -.00033562  00000+0 -12158-2 0  2578
2 56102  42.9988 172.7167 0001136 235.0582 162.7116 15.27590019    17

Отслеживайте STARLINK-6075 в реальном времени с AllMySat

Download on the App Store